TimeCST,TemperatureF,Dew PointF,Humidity,Sea Level PressureIn,VisibilityMPH,Wind Direction,Wind SpeedMPH,Gust SpeedMPH,PrecipitationIn,Events,Conditions,WindDirDegrees,DateUTC
12:15 AM,59.0,59.0,100,30.07,10.0,SSE,10.4,19.6,0.00,,Clear,160,2013-01-29 06:15:00
12:35 AM,59.0,59.0,100,30.07,10.0,SSE,8.1,-,0.00,,Clear,150,2013-01-29 06:35:00
12:55 AM,59.0,59.0,100,30.07,7.0,SSE,10.4,-,0.00,,Partly Cloudy,150,2013-01-29 06:55:00
1:15 AM,57.2,57.2,100,30.06,10.0,SSE,6.9,-,0.00,,Scattered Clouds,160,2013-01-29 07:15:00
1:35 AM,59.0,59.0,100,30.05,9.0,SSE,10.4,-,0.00,,Mostly Cloudy,150,2013-01-29 07:35:00
1:55 AM,57.2,57.2,100,30.04,9.0,SSE,10.4,-,0.00,,Scattered Clouds,150,2013-01-29 07:55:00
2:15 AM,57.2,57.2,100,30.04,7.0,SSE,11.5,-,0.00,,Clear,160,2013-01-29 08:15:00
2:35 AM,57.2,57.2,100,30.03,8.0,SSE,11.5,-,0.00,,Clear,160,2013-01-29 08:35:00
2:55 AM,57.2,57.2,100,30.02,7.0,SSE,11.5,-,0.00,,Clear,160,2013-01-29 08:55:00
3:15 AM,57.2,57.2,100,30.02,6.0,SSE,11.5,-,0.00,,Mostly Cloudy,160,2013-01-29 09:15:00
3:35 AM,57.2,57.2,100,30.01,5.0,SSE,10.4,-,0.00,,Scattered Clouds,160,2013-01-29 09:35:00
3:55 AM,57.2,57.2,100,30.00,7.0,SSE,8.1,-,0.00,,Mostly Cloudy,160,2013-01-29 09:55:00
4:15 AM,57.2,57.2,100,30.00,7.0,SSE,8.1,-,0.00,,Overcast,160,2013-01-29 10:15:00
4:35 AM,59.0,59.0,100,30.00,5.0,South,9.2,-,0.00,,Overcast,170,2013-01-29 10:35:00
4:55 AM,59.0,59.0,100,30.01,5.0,South,10.4,-,0.00,,Overcast,180,2013-01-29 10:55:00
5:15 AM,59.0,59.0,100,30.02,5.0,South,12.7,-,0.00,,Overcast,190,2013-01-29 11:15:00
5:35 AM,59.0,59.0,100,30.02,8.0,South,11.5,-,0.00,,Overcast,190,2013-01-29 11:35:00
5:55 AM,60.8,60.8,100,30.03,8.0,South,11.5,-,0.00,,Overcast,190,2013-01-29 11:55:00
6:50 AM,60.8,60.8,100,30.03,8.0,South,9.2,-,N/A,,Overcast,180,2013-01-29 12:50:00
7:50 AM,60.8,60.8,100,30.02,8.0,SSE,10.4,-,N/A,,Overcast,160,2013-01-29 13:50:00
8:50 AM,62.6,62.6,100,29.98,9.0,South,11.5,20.7,N/A,,Overcast,170,2013-01-29 14:50:00
9:50 AM,64.4,64.4,100,29.97,10.0,South,13.8,23.0,N/A,,Overcast,190,2013-01-29 15:50:00
10:55 AM,66.2,64.4,94,29.93,10.0,South,19.6,27.6,N/A,,Mostly Cloudy,180,2013-01-29 16:55:00
12:50 PM,71.6,62.6,73,29.84,10.0,South,19.6,28.8,N/A,,Mostly Cloudy,190,2013-01-29 18:50:00
2:50 PM,71.6,60.8,69,29.75,10.0,South,16.1,23.0,N/A,,Mostly Cloudy,180,2013-01-29 20:50:00
3:45 PM,73.4,60.8,65,29.73,10.0,South,15.0,20.7,N/A,,Mostly Cloudy,170,2013-01-29 21:45:00
4:50 PM,71.6,60.8,69,29.72,10.0,South,13.8,28.8,N/A,,Mostly Cloudy,180,2013-01-29 22:50:00
6:50 PM,71.6,62.6,73,29.65,10.0,South,17.3,25.3,N/A,,Overcast,170,2013-01-30 00:50:00
7:50 PM,71.6,62.6,73,29.60,10.0,South,23.0,35.7,N/A,,Scattered Clouds,170,2013-01-30 01:50:00
8:15 PM,71.6,64.4,78,29.61,10.0,SSE,24.2,35.7,0.00,,Clear,160,2013-01-30 02:15:00
8:35 PM,69.8,66.2,88,29.62,4.0,SSE,24.2,42.6,0.01,,Mostly Cloudy,160,2013-01-30 02:35:00
8:55 PM,68.0,66.2,94,29.62,5.0,SSE,20.7,32.2,0.03,,Mostly Cloudy,160,2013-01-30 02:55:00
9:15 PM,68.0,66.2,94,29.58,9.0,SSE,18.4,26.5,0.00,,Mostly Cloudy,160,2013-01-30 03:15:00
9:35 PM,68.0,66.2,94,29.57,10.0,SSE,20.7,31.1,0.00,,Scattered Clouds,160,2013-01-30 03:35:00
9:55 PM,68.0,66.2,94,29.54,9.0,SSE,19.6,31.1,0.00,,Partly Cloudy,160,2013-01-30 03:55:00
10:15 PM,68.0,66.2,94,29.53,10.0,SSE,21.9,29.9,0.00,,Clear,160,2013-01-30 04:15:00
10:35 PM,69.8,66.2,88,29.52,9.0,South,28.8,40.3,0.00,,Clear,170,2013-01-30 04:35:00
10:55 PM,69.8,66.2,88,29.52,9.0,South,28.8,41.4,0.00,,Scattered Clouds,170,2013-01-30 04:55:00
11:15 PM,68.0,66.2,94,29.50,5.0,South,24.2,39.1,0.02,,Mostly Cloudy,170,2013-01-30 05:15:00
11:35 PM,68.0,66.2,94,29.49,8.0,South,31.1,44.9,0.03,,Overcast,170,2013-01-30 05:35:00
11:55 PM,68.0,66.2,94,29.51,7.0,South,18.4,31.1,0.03,,Overcast,180,2013-01-30 05:55:00